Location: Karamanbeyli Geçidi
(36.9472°N, 30.1615°E)
Time: 01:10:18
(UTC+00:00)

Daily predictions for brighter satellites

Satellite Brightness Start Highest point End
(mag) Time Altitude Azimuth Time Altitude Azimuth Time Altitude Azimuth
USA 267 4.3 01:29:08 10° NE 01:32:57 34° NNE 01:32:57 34° NNE
CZ-3 R/B 4.1 01:34:51 21° SW 01:45:56 35° S 01:53:22 10° ESE
BREEZE-M DEB (TANK) 4.3 01:52:42 54° SE 01:52:42 54° SE 01:55:40 10° ENE
Chandra Rocket (1) 3.8 02:01:31 33° SSE 02:01:58 34° SSE 02:11:17 10° E
Cosmos 921 Rocket 4.3 02:03:33 38° ENE 02:03:52 39° ENE 02:08:00 10° SE
ACS3 Solar Sail 3.7 02:02:39 10° N 02:03:45 16° N 02:03:45 16° N
USA 234 3.8 02:02:24 10° ESE 02:08:44 54° NE 02:11:31 33° NNW
Cosmos 1939 Rocket 4.5 02:11:49 10° NNE 02:13:56 28° NE 02:13:56 28° NE
Gbstr 26 Del rocket 4.1 02:17:12 43° N 02:17:12 43° N 02:21:23 10° NE
BlueWalker 3 4.3 02:20:01 16° NNE 02:20:01 16° NNE 02:22:13 10° ENE
DELTA 2 R/B (1) 4.5 02:21:42 35° SSW 02:21:42 35° SSW 02:25:57 10° SE
Meteor 2-14 Rocket 4.3 02:18:12 10° S 02:24:18 81° W 02:30:25 10° N
SL-16 R/B 4.1 02:22:59 10° SSW 02:24:49 19° SSW 02:24:49 19° SSW
Cosmos 1943 Rocket 4.0 02:26:46 10° N 02:31:27 28° ENE 02:36:07 10° ESE
Atlas 2A Centaur Rocket 4.4 02:33:26 15° SSW 02:34:58 17° S 02:37:25 10° SE
Cosmos 1809 Rocket 4.3 02:30:07 10° SSW 02:36:08 61° W 02:42:11 10° N
ARGOS 4.1 02:31:38 10° N 02:34:50 32° NNW 02:34:50 32° NNW
PAYLOAD A 4.1 02:33:43 10° N 02:38:59 57° WNW 02:40:26 43° WSW
NOSS 3-1 (C) 3.5 02:40:02 38° NNW 02:40:02 38° NNW 02:44:19 10° NNE
Cosmos 1140 Rocket 4.1 02:36:25 10° N 02:41:26 54° ENE 02:46:24 10° SSE
CZ-2C R/B 3.5 02:39:35 10° N 02:42:20 28° NNW 02:42:20 28° NNW
Cosmos 2100 Rocket 3.8 02:44:37 10° N 02:50:47 80° W 02:56:57 10° S
Cosmos 2219 Rocket 4.0 02:55:06 15° NNW 02:55:06 15° NNW 02:56:49 10° NNW
Iridium 4 Rocket 3.9 02:51:08 10° N 02:55:17 49° E 02:59:17 10° SSE
NOSS 0 Rocket 3.8 02:50:27 10° SSW 02:56:34 78° WNW 03:02:45 10° NNE
COSMOS 2428 3.0 02:59:23 25° WSW 03:02:11 42° WNW 03:07:35 10° N
IRS-1D 3.3 02:58:17 10° NNE 03:03:15 85° WNW 03:08:10 10° SSW
Cosmos 1340 Rocket 3.7 03:05:56 27° SW 03:05:56 27° SW 03:08:09 10° SSW
Cosmos 2322 4.4 03:08:00 26° W 03:09:49 32° WNW 03:14:51 10° N
Cosmos 1459 Rocket 4.0 03:05:59 10° NNW 03:12:13 60° W 03:18:24 10° S
Cosmos 1864 Rocket 4.4 03:06:44 10° N 03:13:01 81° W 03:19:21 10° S
FengYun 1-2 T 4.4 03:12:36 10° N 03:17:57 49° WNW 03:23:18 10° SW
COSMO-SKYMED 1 3.1 03:15:14 10° SSE 03:19:16 58° ENE 03:23:19 10° N
SKYMED 2 3.6 03:15:21 10° SSE 03:19:41 87° ENE 03:24:02 10° NNW
Cosmos 1980 3.6 03:16:27 10° SSW 03:22:02 67° WNW 03:27:41 10° NNE
Cosmos 1725 Rocket 4.0 03:16:12 10° N 03:22:31 75° W 03:28:47 10° S
Cosmos 407 Rocket 3.8 03:18:06 10° NNW 03:23:12 67° ENE 03:28:15 10° SSE
NOSS 3-1 (A) 3.1 03:19:35 14° WSW 03:23:22 46° NW 03:28:29 10° NNE
Cosmos 1802 Rocket 4.1 03:24:02 10° NNW 03:30:14 57° W 03:36:19 10° SSW
Cosmos 1484 Rocket 3.0 03:28:38 10° NNE 03:32:09 64° E 03:35:39 10° S
Cosmos 2233 Rocket 4.0 03:27:30 10° N 03:33:51 90° S 03:40:06 10° S
Cosmos 1703 Rocket 4.4 03:33:50 10° SW 03:37:32 27° WNW 03:41:17 10° NNW
Cosmos 2237 Rocket 2.3 03:32:51 10° SW 03:38:22 52° WNW 03:43:54 10° NNE
Cosmos 2278 Rocket 2.2 03:32:49 10° NNW 03:38:29 83° WSW 03:44:08 10° SSE
Cosmos 2251 Rocket 4.4 03:36:31 10° N 03:41:46 53° ENE 03:46:59 10° SSE
ATLAS 3B R/B 4.4 03:36:34 10° S 03:43:18 42° ESE 03:50:27 10° NE
Cosmos 2292 Rocket 4.1 03:40:16 10° SW 03:43:52 36° WNW 03:48:24 10° N
SL-08 R/B 4.5 03:38:34 10° NNW 03:44:35 61° W 03:50:39 10° S
USA 234 3.8 03:45:43 10° SSE 03:51:47 40° SW 03:57:53 10° WNW
IGS 5A 3.7 03:49:16 10° NNE 03:53:17 73° E 03:57:16 10° S
Cosmos 2242 Rocket 3.6 03:49:15 10° S 03:53:36 86° E 03:58:00 10° N
Cosmos 1624 Rocket 4.0 03:51:07 10° SSW 03:56:18 88° ESE 04:01:29 10° NNE
Helios 1A Rocket 3.4 03:53:29 10° SSW 03:56:26 28° W 03:59:25 10° NW
BlueWalker 3 1.7 03:54:13 10° NW 03:57:49 76° SW 04:01:25 10° SE
Cosmos 1420 Rocket 4.3 03:57:07 10° SW 04:02:07 46° WNW 04:07:13 10° N
USA 276 1.8 04:00:33 10° WNW 04:03:12 70° SW 04:06:03 10° SE
Cosmos 1782 Rocket 4.1 04:00:13 10° NNW 04:04:16 37° W 04:08:16 10° SSW
